Weather History for Clarksburg, WV

Change the Weather History Date:

Monday, December 31, 2012

  Actual Average Record
Temperature  
Mean Temperature 28 °F -  
Max Temperature 35 °F 40 °F 69 °F (1965)
Min Temperature 21 °F 24 °F -7 °F (1935)
Degree Days  
Heating Degree Days 37    
Moisture  
Dew Point 22 °F    
Average Humidity 71    
Maximum Humidity 93    
Minimum Humidity 54    
Precipitation  
Precipitation 0.04 in - - ()
Sea Level Pressure  
Sea Level Pressure 30.20 in    
Wind  
Wind Speed 6 mph (SSW)    
Max Wind Speed 15 mph    
Max Gust Speed 22 mph    
Visibility 8 miles    
Events Snow    
Averages and records for this station are not official NWS values.
T = Trace of Precipitation, MM = Missing Value Source: NWS Daily Summary

Daily Weather History Graph

Daily Weather History Graph

Search for Another Location

Airport:

Trip Planner

Search our weather history database for the weather conditions in past years. The results will help you decide how hot, cold, wet, or windy it might be!

Date:

Astronomy

Dec. 31, 2012 Rise Set
Actual Time 7:40 AM EST 5:07 PM EST
Civil Twilight 7:10 AM EST 5:37 PM EST
Nautical Twilight 6:36 AM EST 6:11 PM EST
Astronomical Twilight 6:04 AM EST 6:44 PM EST
Moon 8:35 PM EST (12/31) 9:22 AM EST (12/31)
Length of Visible Light 10h 27m
Length of Day
9h 27m
Waning Gibbous, 90% of the Moon is Illuminated
Dec 31
Waning Gibbous
Jan 4
Last Quarter
Jan 11
New
Jan 18
First Quarter
Jan 26
Full

Hourly Weather History & Observations

Time (EST) Temp. Windchill Dew Point Humidity Pressure Visibility Wind Dir Wind Speed Gust Speed Precip Events Conditions
12:53 AM 21.0 °F 16.2 °F 16.0 °F 81% 30.37 in 10.0 mi South 3.5 mph - N/A   Clear
1:53 AM 21.0 °F - 17.1 °F 85% 30.35 in 10.0 mi Calm Calm - N/A   Clear
2:53 AM 21.0 °F - 16.0 °F 81% 30.34 in 10.0 mi Calm Calm - N/A   Clear
3:53 AM 21.0 °F 13.4 °F 16.0 °F 81% 30.33 in 10.0 mi South 5.8 mph - N/A   Clear
4:53 AM 23.0 °F 15.8 °F 17.1 °F 78% 30.30 in 10.0 mi SSW 5.8 mph - N/A   Clear
5:53 AM 21.9 °F 14.5 °F 16.0 °F 78% 30.29 in 10.0 mi SSW 5.8 mph - N/A   Clear
7:53 AM 25.0 °F 18.1 °F 18.0 °F 75% 30.29 in 10.0 mi South 5.8 mph - N/A   Clear
8:53 AM 27.0 °F 20.5 °F 19.0 °F 72% 30.28 in 10.0 mi South 5.8 mph - N/A   Clear
9:53 AM 30.0 °F 25.2 °F 19.9 °F 66% 30.28 in 10.0 mi SSW 4.6 mph - N/A   Clear
10:53 AM 32.0 °F 23.6 °F 21.0 °F 64% 30.26 in 10.0 mi SSW 10.4 mph - N/A   Clear
11:53 AM 33.1 °F 24.4 °F 21.0 °F 61% 30.23 in 10.0 mi SW 11.5 mph - 0.02 in   Scattered Clouds
12:53 PM 34.0 °F 25.5 °F 21.0 °F 59% 30.20 in 10.0 mi SW 11.5 mph - 0.02 in   Overcast
1:53 PM 35.1 °F 25.5 °F 19.9 °F 54% 30.18 in 10.0 mi SW 15.0 mph 21.9 mph N/A   Overcast
2:05 PM 33.8 °F 24.3 °F 21.2 °F 60% 30.16 in 2.0 mi WSW 13.8 mph 20.7 mph 0.00 in Snow Light Snow
2:10 PM 33.8 °F 24.3 °F 24.8 °F 70% 30.16 in 0.5 mi WSW 13.8 mph 21.9 mph 0.00 in Snow Snow
2:24 PM 30.2 °F 21.3 °F 26.6 °F 86% 30.15 in 0.5 mi SW 10.4 mph - 0.00 in Snow Snow
2:40 PM 30.2 °F 24.3 °F 28.4 °F 93% 30.15 in 4.0 mi SSW 5.8 mph - 0.00 in Snow Light Snow
2:49 PM 30.2 °F 24.3 °F 26.6 °F 86% 30.14 in 9.0 mi SW 5.8 mph - 0.00 in   Overcast
2:53 PM 30.9 °F 27.5 °F 27.0 °F 85% 30.17 in 10.0 mi SW 3.5 mph - 0.00 in   Overcast
3:03 PM 32.0 °F 27.5 °F 26.6 °F 80% 30.14 in 10.0 mi SSW 4.6 mph - N/A   Overcast
3:45 PM 33.8 °F 26.4 °F 24.8 °F 70% 30.12 in 3.0 mi SSW 9.2 mph - 0.00 in Snow Light Snow
3:53 PM 33.1 °F 26.1 °F 24.1 °F 70% 30.14 in 6.0 mi South 8.1 mph - 0.00 in   Haze
4:53 PM 33.1 °F 26.9 °F 24.1 °F 70% 30.10 in 10.0 mi South 6.9 mph - N/A   Overcast
5:53 PM 33.1 °F 26.9 °F 24.1 °F 70% 30.16 in 10.0 mi SW 6.9 mph - 0.00 in   Overcast
6:53 PM 34.0 °F 28.0 °F 21.9 °F 61% 30.12 in 10.0 mi SSW 6.9 mph - N/A   Overcast
7:53 PM 34.0 °F 28.0 °F 23.0 °F 64% 30.11 in 10.0 mi SSW 6.9 mph - N/A   Overcast
8:53 PM 34.0 °F 26.0 °F 21.9 °F 61% 30.10 in 10.0 mi SW 10.4 mph - N/A   Overcast
9:05 PM 35.6 °F 28.6 °F 21.2 °F 56% 30.08 in 10.0 mi SW 9.2 mph - N/A   Overcast
9:53 PM 35.1 °F 28.6 °F 21.9 °F 59% 30.09 in 10.0 mi SW 8.1 mph - N/A   Overcast
11:53 PM 35.1 °F 27.9 °F 23.0 °F 61% 30.07 in 10.0 mi SW 9.2 mph - N/A   Overcast